Вернуться в каталог

DELTA 1 DEB

АктивенPO
NORAD 21933·DEBRIS·🇺🇸 United States

Запущен Jun 12, 1975 с Vandenberg Space Force Base

Loading…

Ближайшие Пролёты (ближайшие 24 часа)

TLE

СвежийSource: Space-Track

Эпоха: Sep 12, 2026, 01:44 UTC

1 21933U 75052JT  26255.07284811  .00000038  00000-0  16427-3 0  9992
2 21933  99.3151 305.1214 0158739  97.3745 293.6226 13.23652255683733

Отслеживайте DELTA 1 DEB в реальном времени с AllMySat

Download on the App Store